Retour au catalogue

COSMOS 249 DEB

ActifLEO
NORAD 3695·DEBRIS·🇷🇺 Russia

Lancé Oct 20, 1968 depuis Baikonur Cosmodrome

Loading…

Prochains Passages (prochaines 24 heures)

TLE

FraisSource: Space-Track

Époque: Sep 14, 2026, 08:13 UTC

1 03695U 68091AL  26257.34243507  .00001529  00000-0  17742-2 0  9997
2 03695  62.2434  25.5397 0637383 256.8366  96.0802 13.07557789683850

Suivez COSMOS 249 DEB en temps réel avec AllMySat

Download on the App Store